Voltar ao catálogo

STARLINK-38134

AtivoComunicaçõesSSO
NORAD 100123·PAYLOAD·🇺🇸 United States

Lançado Jul 21, 2026 de Vandenberg Space Force Base

Loading…

Próximas Passagens (próximas 24 horas)

TLE

AtualizadoSource: Space-Track

Época: Sep 14, 2026, 00:59 UTC

1 A0123U 26166Y   26257.04138723  .00001279  00000-0  94440-5 0  9992
2 A0123  97.2844 275.1793 0001675  85.2384 274.9072 15.75187425  8593

Acompanhe STARLINK-38134 em tempo real com AllMySat

Download on the App Store